Weather History for Ord, NE

Change the Weather History Date:

Monday, October 8, 2012

  Actual Average Record
Temperature  
Mean Temperature 55 °F 53 °F  
Max Temperature 76 °F 67 °F 90 °F (2010)
Min Temperature 33 °F 39 °F 12 °F (2000)
Degree Days  
Heating Degree Days 10    
Month to date heating degree days 146  
Since 1 July heating degree days 288  
Cooling Degree Days 0    
Month to date cooling degree days 0  
Year to date cooling degree days 1220  
Growing Degree Days 5 (Base 50)    
Moisture  
Dew Point 27 °F    
Average Humidity 40    
Maximum Humidity 64    
Minimum Humidity 16    
Precipitation  
Precipitation 0.00 in 0.06 in 0.89 in (2011)
Month to date precipitation 0.01 0.58  
Year to date precipitation 11.06 21.93  
Sea Level Pressure  
Sea Level Pressure 29.86 in    
Wind  
Wind Speed 6 mph (West)    
Max Wind Speed 18 mph    
Max Gust Speed 24 mph    
Visibility 10 miles    
Events      
T = Trace of Precipitation, MM = Missing Value Source: NWS Daily Summary

Daily Weather History Graph

Daily Weather History Graph

Search for Another Location

Airport:

Trip Planner

Search our weather history database for the weather conditions in past years. The results will help you decide how hot, cold, wet, or windy it might be!

Date:

Astronomy

Oct. 08, 2012 Rise Set
Actual Time 7:40 AM CDT 7:04 PM CDT
Civil Twilight 7:12 AM CDT 7:32 PM CDT
Nautical Twilight 6:40 AM CDT 8:04 PM CDT
Astronomical Twilight 6:08 AM CDT 8:36 PM CDT
Moon 12:16 AM CDT (10/8) 3:00 PM CDT (10/8)
Length of Visible Light 12h 19m
Length of Day
11h 24m
Last Quarter, 46% of the Moon is Illuminated
Oct 8
Last Quarter
Oct 15
New
Oct 21
First Quarter
Oct 29
Full
Nov 6
Last Quarter

Hourly Weather History & Observations

Time (CDT) Temp. Windchill Dew Point Humidity Pressure Visibility Wind Dir Wind Speed Gust Speed Precip Events Conditions
12:53 AM 39.0 °F 32.3 °F 24.1 °F 55% 29.98 in 10.0 mi SSW 10.4 mph - N/A   Clear
1:53 AM 37.0 °F - 24.1 °F 59% 29.97 in 10.0 mi Calm Calm - N/A   Clear
2:53 AM 37.0 °F 32.4 °F 25.0 °F 62% 29.97 in 10.0 mi SSW 5.8 mph - N/A   Clear
3:53 AM 35.1 °F - 24.1 °F 64% 29.96 in 10.0 mi Calm Calm - N/A   Clear
4:53 AM 35.1 °F - 25.0 °F 67% 29.94 in 10.0 mi Calm Calm - N/A   Clear
5:53 AM 37.9 °F - 25.0 °F 60% 29.93 in 10.0 mi Calm Calm - N/A   Clear
6:53 AM 36.0 °F - 24.1 °F 62% 29.92 in 10.0 mi Calm Calm - N/A   Clear
7:53 AM 36.0 °F 33.3 °F 25.0 °F 64% 29.92 in 10.0 mi SSE 3.5 mph - N/A   Clear
8:53 AM 44.1 °F 40.1 °F 25.0 °F 47% 29.91 in 10.0 mi SSW 6.9 mph - N/A   Clear
9:53 AM 53.1 °F - 23.0 °F 31% 29.89 in 10.0 mi WSW 9.2 mph - N/A   Clear
10:53 AM 59.0 °F - 24.1 °F 26% 29.87 in 10.0 mi WSW 11.5 mph - N/A   Clear
11:53 AM 64.9 °F - 24.1 °F 21% 29.85 in 10.0 mi West 9.2 mph - N/A   Clear
12:53 PM 70.0 °F - 23.0 °F 17% 29.81 in 10.0 mi West 10.4 mph - N/A   Clear
1:53 PM 73.0 °F - 24.1 °F 16% 29.78 in 10.0 mi West 11.5 mph 21.9 mph N/A   Clear
2:53 PM 73.9 °F - 26.1 °F 17% 29.77 in 10.0 mi West 13.8 mph - N/A   Clear
3:53 PM 75.0 °F - 26.1 °F 16% 29.75 in 10.0 mi West 15.0 mph 20.7 mph N/A   Clear
4:53 PM 75.0 °F - 28.0 °F 18% 29.74 in 10.0 mi WSW 13.8 mph - N/A   Clear
5:53 PM 73.0 °F - 28.9 °F 20% 29.75 in 10.0 mi NW 10.4 mph - N/A   Partly Cloudy
6:53 PM 64.9 °F - 28.9 °F 26% 29.76 in 10.0 mi WNW 4.6 mph - N/A   Clear
7:53 PM 60.1 °F - 33.1 °F 36% 29.80 in 10.0 mi North 3.5 mph - N/A   Clear
8:53 PM 55.4 °F - 33.8 °F 44% 29.80 in 10.0 mi North 5.8 mph - N/A   Clear
9:53 PM 51.1 °F - 33.1 °F 50% 29.84 in 10.0 mi North 3.5 mph - N/A   Clear
10:53 PM 46.9 °F - 33.1 °F 59% 29.85 in 10.0 mi NW 5.8 mph - N/A   Clear
11:53 PM 48.0 °F - 33.1 °F 56% 29.84 in 10.0 mi Calm Calm - N/A   Clear